Location: Gazzata
(44.7000°N, 10.7833°E)
Time: 10:10:11
(UTC+00:00)

Daily predictions for brighter satellites

Satellite Brightness Start Highest point End
(mag) Time Altitude Azimuth Time Altitude Azimuth Time Altitude Azimuth
Cosmos 2221 3.9 15:59:33 10° SSW 16:03:36 41° WNW 16:07:43 10° N
USA 308 4.2 16:01:33 10° NW 16:05:05 25° N 16:08:37 10° ENE
CZ-2C R/B 2.8 16:00:32 10° SSE 16:05:21 71° ENE 16:10:05 10° N
SL-16 R/B 3.4 16:01:34 10° N 16:05:46 21° NE 16:09:56 10° E
Cosmos 2082 Rocket 2.4 16:02:01 10° S 16:07:35 60° ESE 16:13:10 10° NNE
Cosmos 540 Rocket 3.5 16:03:28 10° SSW 16:08:34 87° ESE 16:13:43 10° NNE
ARGOS 4.5 16:06:27 10° E 16:09:54 18° ENE 16:13:23 10° NNE
Sich 1 3.2 16:05:47 10° N 16:10:01 52° ENE 16:14:14 10° SSE
Cosmos 1500 Rocket 3.9 16:05:39 10° NNW 16:10:04 71° W 16:14:25 10° S
FengYun 1-2 T 4.3 16:07:38 10° SSE 16:13:06 62° ENE 16:18:34 10° N
COSMOS 2455 2.9 16:08:11 10° SSW 16:14:12 86° ESE 16:20:17 10° NNE
SMAP 3.3 16:11:24 10° SE 16:15:52 49° ENE 16:20:22 10° N
NOAA 6 4.2 16:12:23 10° SE 16:17:20 52° ENE 16:22:19 10° N
Cosmos 1933 3.5 16:16:48 10° SSW 16:20:50 77° W 16:24:52 10° N
Cosmos 1833 Rocket 3.4 16:15:32 10° SW 16:21:00 53° WNW 16:26:32 10° NNE
Cosmos 1805 Rocket 3.6 16:18:11 10° N 16:22:33 89° W 16:26:53 10° S
Cosmos 2278 3.8 16:17:32 10° NNW 16:23:11 58° ENE 16:28:46 10° SE
Cosmos 1602 3.9 16:21:33 10° NNW 16:25:25 77° W 16:29:17 10° S
CZ-4B DEB 4.4 16:21:13 10° SE 16:26:30 50° ENE 16:31:47 10° N
USA 305 3.9 16:25:59 10° NW 16:29:43 29° NNE 16:32:51 13° ENE
CZ-2C R/B 3.6 16:26:57 10° NE 16:31:10 25° E 16:35:21 10° SSE
CZ-4B R/B 3.2 16:28:00 10° S 16:31:57 67° WSW 16:35:43 10° NNW
SL-24 R/B - RUBIN 2 4.0 16:28:03 10° NW 16:32:30 66° WSW 16:36:45 10° SSE
Cosmos 1500 3.1 16:31:56 10° N 16:35:42 90° E 16:39:25 10° S
Meteor 1-14 Rocket 4.4 16:30:14 10° N 16:36:03 61° ENE 16:41:56 10° SSE
Cosmos 44 Rocket 3.4 16:32:28 10° NNW 16:37:16 51° NE 16:41:54 10° SE
Meteor 2-16 Rocket 4.5 16:34:14 10° N 16:40:18 60° ENE 16:46:20 10° SSE
COSMOS 2406 4.1 16:35:07 10° SW 16:40:39 49° WNW 16:46:14 10° NNE
Cosmos 1814 Rocket 3.9 16:36:13 10° SSW 16:41:25 80° ESE 16:46:37 10° NNE
Cosmos 921 Rocket 3.6 16:38:52 10° SSE 16:42:40 35° E 16:45:57 13° NE
Cosmos 1570 Rocket 3.9 16:43:04 10° SSW 16:48:17 79° ESE 16:53:32 10° NNE
CZ-4B R/B 3.4 16:47:31 10° SE 16:52:36 44° ENE 16:57:38 10° N
MOS 1-B Rocket 4.3 16:46:34 10° NNE 16:52:37 57° ESE 16:59:33 10° S
CZ-2D R/B 3.1 16:51:08 10° SSE 16:54:55 64° ENE 16:58:42 10° N
Cosmos 2298 Rocket 4.2 16:50:53 10° NNW 16:56:05 49° ENE 17:01:14 10° SE
USA 267 3.3 16:50:26 14° NE 16:56:12 84° NW 17:02:45 10° SW
MOS 1-B 4.3 16:51:43 10° SSE 16:57:25 66° ENE 17:03:10 10° N
Cosmos 1939 Rocket 3.8 16:53:36 10° S 16:57:37 53° W 17:01:36 10° NNW
ATLAS CENTAUR R/B 3.7 16:49:23 10° WSW 16:58:15 44° NW 17:01:31 15° NNE
Cosmos 1151 Rocket 3.1 16:56:21 10° S 17:00:41 84° W 17:05:04 10° N
Meteor 1-27 Rocket 4.4 16:56:12 10° SSE 17:00:53 29° E 17:04:00 18° NE
USA 306 3.5 16:58:16 10° NW 17:02:14 37° NNE 17:03:51 26° ENE
COSMO-SKYMED 1 3.0 16:59:10 15° NNE 17:02:29 41° E 17:06:35 10° S
Cosmos 1633 Rocket 3.0 16:58:17 10° N 17:02:42 86° E 17:07:05 10° S
Cosmos 1782 4.3 16:59:09 10° SW 17:02:53 38° WNW 17:06:38 10° N
APEX 3.3 16:59:38 10° S 17:03:19 45° ESE 17:04:23 32° ENE
Meteor 2-6 Rocket 4.2 16:57:59 10° S 17:03:40 71° E 17:09:13 10° NNE
Cosmos 1666 2.8 17:00:42 10° NNW 17:04:25 76° W 17:08:06 10° S
Landsat 5 4.2 17:05:03 27° ENE 17:05:42 29° E 17:09:08 10° SSE
Cosmos 2360 Rocket 3.1 17:02:10 10° N 17:06:55 27° NE 17:08:17 24° ENE
PAYLOAD B 4.2 17:01:52 10° SSE 17:07:29 84° ENE 17:13:06 10° NNW
ISS -1.4 17:04:48 10° W 17:07:39 25° SW 17:10:28 10° SSE
Cosmos 1900 4.4 17:03:12 10° SW 17:08:04 73° NW 17:11:52 17° NNE
Cosmos 1818 3.6 17:07:21 10° NW 17:12:52 87° WSW 17:18:19 10° SSE
Cosmos 2279 Rocket 4.2 17:10:29 10° SSW 17:16:41 75° W 17:22:55 10° N
CZ-2C R/B 3.3 17:13:46 10° SW 17:17:03 21° S 17:19:13 15° SE
Meteor 2-15 4.3 17:12:56 10° S 17:19:01 74° E 17:25:06 10° NNE
ATLAS 5 CENTAUR R/B 2.1 17:13:27 10° NW 17:19:17 41° NNE 17:19:38 39° NE
Cosmos 2266 Rocket 4.0 17:15:31 10° N 17:21:54 66° E 17:28:16 10° SSE
USA 307 3.3 17:18:48 10° NW 17:22:53 43° NNE 17:23:33 40° NE
CZ-4C R/B 3.6 17:16:42 10° NW 17:24:01 62° WSW 17:32:23 10° SSE
SL-08 RB Rocket 3.9 17:19:43 10° SE 17:24:08 46° ENE 17:28:31 10° N
Lacrosse 5 rocket 1.5 17:22:08 10° NW 17:26:05 70° SW 17:28:57 19° SE
SKYMED 3 4.4 17:23:34 19° NNE 17:26:41 76° ESE 17:31:01 10° S
USA 234 3.2 17:22:45 10° SE 17:29:18 89° NE 17:35:53 10° NW
ATLAS 2AS CENTAUR R/B 4.2 17:24:25 10° NNW 17:29:36 19° NNE 17:31:18 18° NNE
Cosmos 1933 Rocket 3.4 17:25:31 10° N 17:29:49 60° E 17:34:06 10° SSE
Cosmos 2322 Rocket 2.2 17:24:17 10° NNW 17:29:56 58° ENE 17:35:03 12° SE
Tiangong 3.3 17:28:33 10° SSW 17:30:10 16° SSE 17:30:10 16° SSE
Cosmos 1328 Rocket 4.2 17:26:25 10° SSW 17:30:47 57° W 17:35:11 10° N
Cosmos 2150 Rocket 3.9 17:26:27 10° NNW 17:31:41 90° WSW 17:36:56 10° SSE
Cosmos 1980 Rocket 4.2 17:27:57 10° NW 17:32:46 29° WSW 17:37:32 10° SSW
Cosmos 1470 Rocket 3.8 17:31:23 10° NNW 17:35:52 73° W 17:40:19 10° S
Cosmos 1544 3.0 17:32:19 10° N 17:35:57 85° W 17:39:34 10° S
Cosmos 1867 3.6 17:31:30 10° SSW 17:36:50 61° ESE 17:38:27 43° ENE
NOSS 3-3 (A) 4.1 17:31:46 10° S 17:37:04 45° ESE 17:38:22 39° E
NOSS 3-3 (C) 4.1 17:31:52 10° S 17:37:10 45° ESE 17:38:27 39° E
H-2A R/B 2.7 17:32:43 10° S 17:37:45 56° W 17:42:41 10° NNW
Cosmos 1125 Rocket 3.5 17:32:38 10° NNW 17:37:55 86° WSW 17:43:12 10° SSE
X-37B 1.5 17:35:42 10° WSW 17:37:49 39° SW 17:37:49 39° SW
DEBRIS 3.5 17:36:21 10° SSW 17:38:34 38° SSE 17:38:34 38° SSE
Okean O Rocket 1.5 17:35:03 10° SSE 17:39:31 89° WSW 17:44:00 10° NNW
Meteor 1-10 Rocket 4.3 17:35:04 10° SSW 17:40:49 80° W 17:46:30 10° N
GEOS 3 Rocket 4.5 17:41:55 32° NNE 17:41:55 32° NNE 17:46:04 10° NNW
USA 32 3.9 17:37:35 10° S 17:42:45 69° E 17:46:22 20° NNE
Meteor 1-11 Rocket 3.6 17:37:25 10° N 17:43:06 86° E 17:48:53 10° S
USA 308 3.1 17:41:27 10° NW 17:45:22 55° N 17:45:22 55° N
ARGOS 3.3 17:44:10 10° S 17:49:33 75° WSW 17:54:59 10° NNW
SL-16 R/B 2.3 17:44:50 10° NNW 17:50:31 77° WSW 17:56:10 10° SSE
SKYMED 2 4.0 17:47:47 21° N 17:50:36 60° WNW 17:54:52 10° SSW
Cosmos 2082 Rocket 4.1 17:47:29 10° WSW 17:52:06 25° NW 17:56:42 10° N
deb Chang Zheng 4 4.3 17:50:56 10° S 17:55:08 52° W 17:59:22 10° NNW
Cosmos 1241 Rocket 4.3 17:53:58 10° SSW 18:00:21 78° ESE 18:01:58 52° NE
Feng Yun 1-1 Rocket 4.3 17:58:28 10° SSE 18:04:23 88° WSW 18:10:16 10° NNW
USA 305 3.6 18:05:44 10° NW 18:08:52 48° NW 18:08:52 48° NW
Cosmos 2333 Rocket 3.4 18:05:03 10° NNW 18:08:05 28° N 18:08:05 28° N
CZ-2C R/B 3.6 18:06:50 10° N 18:11:39 44° WNW 18:16:31 10° SW
Aureole 3 Rocket 3.9 18:12:39 10° SSW 18:17:08 64° WNW 18:23:31 10° N
Cosmos 2219 Rocket 3.9 18:13:02 10° NNW 18:15:05 21° N 18:15:05 21° N
USA 267 4.1 18:37:47 36° N 18:38:46 39° NNW 18:44:42 10° W
Cosmos 2360 Rocket 3.0 18:45:44 10° NNW 18:50:08 47° WNW 18:50:08 47° WNW
CZ-2C R/B 4.3 18:52:58 10° SW 18:53:23 12° SW 18:53:23 12° SW
Cosmos 2322 Rocket 4.3 19:09:11 10° NW 19:13:31 23° W 19:17:09 13° SW
ATLAS 2AS CENTAUR R/B 4.4 19:15:41 10° NNW 19:18:44 24° NNW 19:18:44 24° NNW
